EW7401 Weather Reports


Display with metric or nautical units.
time (UTC)temp
F
wind
direction
speed
MPH
gust
MPH
rain 1hr
in
rain 24hr
in
rain mn
in
humidity
%
barometer
mb
20200408221605 53 331 5.0 9.0 0.00 0.00 0.00 66 1022.9
20200408221105 53 318 5.0 7.0 0.00 0.00 0.00 67 1022.9
20200408220606 53 327 5.0 6.0 0.00 0.00 0.00 66 1023.0
20200408220106 54 321 5.0 6.0 0.00 0.00 0.00 65 1023.1
20200408215606 54 341 5.0 8.0 0.00 0.00 0.00 63 1023.1
20200408215105 53 325 5.0 9.0 0.00 0.00 0.00 63 1023.1
20200408214605 54 325 6.0 9.0 0.00 0.00 0.00 64 1023.1
20200408214106 54 316 6.0 7.0 0.00 0.00 0.00 65 1023.2
20200408213606 53 350 6.0 8.0 0.00 0.00 0.00 64 1023.2
20200408213105 53 324 6.0 7.0 0.00 0.00 0.00 64 1023.2
20200408212606 53 336 6.0 9.0 0.00 0.00 0.00 65 1023.2
20200408212105 53 325 5.0 7.0 0.00 0.00 0.00 69 1023.3
20200408211606 53 323 5.0 7.0 0.00 0.00 0.00 69 1023.4
20200408211106 54 337 3.0 6.0 0.00 0.00 0.00 68 1023.5
20200408210605 54 335 3.0 6.0 0.00 0.00 0.00 66 1023.6
20200408210106 55 1 6.0 9.0 0.00 0.00 0.00 65 1023.7
20200408205606 55 357 6.0 9.0 0.00 0.00 0.00 62 1023.7
20200408205105 55 354 7.0 9.0 0.00 0.00 0.00 63 1023.7
20200408204605 55 0 6.0 7.0 0.00 0.00 0.00 64 1023.7
20200408204105 54 6 4.0 6.0 0.00 0.00 0.00 65 1023.7
20200408203606 54 6 3.0 5.0 0.00 0.00 0.00 66 1023.8
20200408203106 54 0 3.0 5.0 0.00 0.00 0.00 68 1023.8
20200408202605 53 357 5.0 9.0 0.00 0.00 0.00 68 1023.9
20200408202105 53 7 5.0 7.0 0.00 0.00 0.00 70 1024.0
20200408201606 53 336 4.0 6.0 0.00 0.00 0.00 69 1024.1
20200408201106 53 335 3.0 6.0 0.00 0.00 0.00 68 1024.2
20200408200605 53 316 3.0 5.0 0.00 0.00 0.00 68 1024.2
20200408200106 54 339 5.0 8.0 0.00 0.00 0.00 67 1024.2
20200408195606 54 338 5.0 8.0 0.00 0.00 0.00 66 1024.2
20200408195112 54 352 5.0 8.0 0.00 0.00 0.00 66 1024.2
20200408194605 53 356 5.0 8.0 0.00 0.00 0.00 67 1024.3
20200408194105 53 352 7.0 9.0 0.00 0.00 0.00 67 1024.4
20200408193606 52 354 4.0 7.0 0.00 0.00 0.00 68 1024.6
20200408193106 52 9 5.0 8.0 0.00 0.00 0.00 68 1024.6
20200408192605 52 3 5.0 7.0 0.00 0.00 0.00 68 1024.6
20200408192105 52 1 5.0 7.0 0.00 0.00 0.00 68 1024.7
20200408191605 52 2 5.0 7.0 0.00 0.00 0.00 68 1024.7
20200408191105 52 10 6.0 9.0 0.00 0.00 0.00 68 1024.8
20200408190605 52 353 6.0 10.0 0.00 0.00 0.00 68 1024.8
20200408190106 51 354 7.0 10.0 0.00 0.00 0.00 69 1024.9
20200408185605 51 358 6.0 9.0 0.00 0.00 0.00 69 1024.9
20200408185105 51 0 5.0 9.0 0.00 0.00 0.00 70 1025.0
20200408184606 51 9 5.0 9.0 0.00 0.00 0.00 69 1025.0
20200408184105 51 6 6.0 9.0 0.00 0.00 0.00 69 1024.9
20200408183606 51 13 6.0 9.0 0.00 0.00 0.00 69 1024.9
20200408183107 51 7 6.0 9.0 0.00 0.00 0.00 68 1025.0
20200408182605 51 10 6.0 9.0 0.00 0.00 0.00 68 1025.1
20200408182106 52 354 7.0 10.0 0.00 0.00 0.00 69 1025.0
20200408181606 52 349 7.0 12.0 0.00 0.00 0.00 68 1025.0
20200408181106 51 352 6.0 9.0 0.00 0.00 0.00 68 1025.1
20200408180605 51 355 7.0 12.0 0.00 0.00 0.00 68 1025.0
20200408180106 50 342 7.0 12.0 0.00 0.00 0.00 68 1025.1
20200408175606 50 336 6.0 12.0 0.00 0.00 0.00 67 1025.1
20200408175106 50 339 7.0 10.0 0.00 0.00 0.00 68 1025.1
20200408174606 50 341 6.0 10.0 0.00 0.00 0.00 68 1025.2
20200408174106 50 335 7.0 12.0 0.00 0.00 0.00 68 1025.1
20200408173605 50 340 7.0 12.0 0.00 0.00 0.00 68 1025.2
20200408173105 49 335 7.0 10.0 0.00 0.00 0.00 69 1025.0
20200408172605 49 344 6.0 10.0 0.00 0.00 0.00 69 1025.0
20200408172105 49 338 6.0 12.0 0.00 0.00 0.00 69 1025.0
20200408171606 49 336 5.0 8.0 0.00 0.00 0.00 69 1025.0
20200408171106 49 339 5.0 10.0 0.00 0.00 0.00 69 1025.1
20200408170605 49 342 6.0 10.0 0.00 0.00 0.00 70 1024.9
20200408170105 49 337 6.0 10.0 0.00 0.00 0.00 70 1024.9
20200408165606 49 343 6.0 10.0 0.00 0.00 0.00 71 1024.8
20200408165106 49 335 6.0 12.0 0.00 0.00 0.00 72 1024.8
20200408164606 48 343 5.0 12.0 0.00 0.00 0.00 72 1024.8
20200408164105 48 339 7.0 12.0 0.00 0.00 0.00 73 1024.8
20200408163605 48 337 6.0 12.0 0.00 0.00 0.00 74 1024.8
20200408163106 47 338 7.0 12.0 0.00 0.00 0.00 75 1024.8
20200408162606 47 337 6.0 12.0 0.00 0.00 0.00 75 1024.8
20200408162106 47 322 9.0 12.0 0.00 0.00 0.00 74 1024.8
20200408161606 47 323 9.0 13.0 0.00 0.00 0.00 74 1024.8
20200408161105 46 319 10.0 12.0 0.00 0.00 0.00 75 1024.8
20200408160605 46 324 7.0 12.0 0.00 0.00 0.00 75 1024.8
20200408160105 46 328 6.0 12.0 0.00 0.00 0.00 76 1024.8
20200408155605 46 327 7.0 12.0 0.00 0.00 0.00 76 1024.8
20200408155105 46 326 7.0 12.0 0.00 0.00 0.00 76 1024.8
20200408154605 46 326 7.0 13.0 0.00 0.00 0.00 75 1024.8
20200408154106 46 333 8.0 12.0 0.00 0.00 0.00 75 1024.7
20200408153606 46 325 8.0 12.0 0.00 0.00 0.00 75 1024.7
20200408153106 46 339 7.0 13.0 0.00 0.00 0.00 76 1024.8
20200408152605 46 333 10.0 13.0 0.00 0.00 0.00 76 1024.8
20200408152105 46 335 7.0 13.0 0.00 0.00 0.00 75 1024.8
20200408151605 46 335 10.0 13.0 0.00 0.00 0.00 75 1024.8
20200408151106 46 343 10.0 13.0 0.00 0.00 0.00 75 1024.9
20200408150605 46 343 9.0 13.0 0.00 0.00 0.00 75 1024.8
20200408150106 45 356 10.0 14.0 0.00 0.00 0.00 76 1024.8
20200408145606 45 340 8.0 14.0 0.00 0.00 0.00 75 1024.8
20200408145105 45 342 10.0 14.0 0.00 0.00 0.00 76 1024.8
20200408144606 45 342 10.0 15.0 0.00 0.00 0.00 76 1024.8
20200408144105 45 341 9.0 12.0 0.00 0.00 0.00 76 1024.8
20200408143607 45 340 8.0 12.0 0.00 0.00 0.00 75 1024.7
20200408143115 44 335 7.0 12.0 0.00 0.00 0.00 74 1024.8
20200408142606 44 337 8.0 12.0 0.00 0.00 0.00 74 1024.8
20200408142105 44 331 7.0 13.0 0.00 0.00 0.00 74 1024.7
20200408141605 44 330 7.0 12.0 0.00 0.00 0.00 74 1024.7
20200408141106 44 334 7.0 13.0 0.00 0.00 0.00 75 1024.6
20200408140606 44 335 8.0 13.0 0.00 0.00 0.00 75 1024.4
20200408140106 44 333 7.0 12.0 0.00 0.00 0.00 77 1024.5
20200408135605 44 335 7.0 10.0 0.00 0.00 0.00 77 1024.3
20200408135105 43 339 5.0 9.0 0.00 0.00 0.00 78 1024.3
20200408134605 43 326 3.0 6.0 0.00 0.00 0.00 78 1024.3
20200408134105 43 323 5.0 9.0 0.00 0.00 0.00 78 1024.2
20200408133605 43 331 5.0 8.0 0.00 0.00 0.00 79 1024.2
20200408133106 44 308 3.0 9.0 0.00 0.00 0.00 79 1024.2
20200408132605 44 325 5.0 9.0 0.00 0.00 0.00 79 1024.1
20200408132105 44 325 5.0 7.0 0.00 0.00 0.00 79 1024.1
20200408131606 44 324 3.0 7.0 0.00 0.00 0.00 79 1024.1
20200408131105 44 321 5.0 7.0 0.00 0.00 0.00 78 1024.0
20200408130605 44 315 3.0 7.0 0.00 0.00 0.00 78 1024.1
20200408130106 44 321 3.0 9.0 0.00 0.00 0.00 79 1024.1
20200408125605 44 320 7.0 10.0 0.00 0.00 0.00 79 1024.0
20200408125105 44 322 7.0 10.0 0.00 0.00 0.00 80 1024.1
20200408124605 44 320 7.0 12.0 0.00 0.00 0.00 80 1024.1
20200408124105 44 319 9.0 12.0 0.00 0.00 0.00 80 1023.8
20200408123605 44 320 6.0 12.0 0.00 0.00 0.00 80 1024.0
20200408123105 45 321 9.0 12.0 0.00 0.00 0.00 80 1023.9
20200408122606 44 325 9.0 12.0 0.00 0.00 0.00 81 1023.9
20200408122105 44 322 9.0 13.0 0.00 0.00 0.00 81 1023.8
20200408121605 44 323 9.0 13.0 0.00 0.00 0.00 81 1023.8
20200408121106 44 325 7.0 13.0 0.00 0.00 0.00 80 1023.8
20200408120605 45 320 6.0 12.0 0.00 0.00 0.00 81 1023.8
20200408120107 45 317 9.0 14.0 0.00 0.00 0.00 81 1023.8
20200408115605 45 320 8.0 12.0 0.00 0.00 0.00 81 1023.7
20200408115105 45 308 8.0 12.0 0.00 0.00 0.00 81 1023.7
20200408114605 45 316 7.0 13.0 0.00 0.00 0.00 82 1023.7
20200408114106 45 322 12.0 14.0 0.00 0.00 0.00 82 1023.7
20200408113605 45 323 10.0 14.0 0.00 0.00 0.00 82 1023.7
20200408113105 45 321 12.0 16.0 0.00 0.00 0.00 82 1023.7
20200408112606 45 327 12.0 16.0 0.00 0.00 0.00 82 1023.7
20200408112105 45 323 10.0 15.0 0.00 0.00 0.00 83 1023.7
20200408111605 45 322 12.0 15.0 0.00 0.00 0.00 84 1023.7
20200408111105 45 317 9.0 16.0 0.00 0.00 0.00 85 1023.7
20200408110605 45 326 10.0 13.0 0.00 0.00 0.00 86 1023.7
20200408110106 45 325 9.0 12.0 0.00 0.00 0.00 86 1023.6
20200408105605 45 332 6.0 10.0 0.00 0.00 0.00 87 1023.6
20200408105105 45 329 7.0 10.0 0.00 0.00 0.00 87 1023.6
20200408104605 44 329 5.0 10.0 0.00 0.00 0.00 87 1023.6
20200408104108 44 322 3.0 9.0 0.00 0.00 0.00 86 1023.7
20200408103605 45 326 4.0 7.0 0.00 0.00 0.00 86 1023.7
20200408103106 44 338 7.0 10.0 0.00 0.00 0.00 86 1023.7
20200408102606 45 354 5.0 8.0 0.00 0.00 0.00 86 1023.7
20200408102105 45 340 7.0 10.0 0.00 0.00 0.00 86 1023.7
20200408101605 44 339 6.0 12.0 0.00 0.00 0.00 86 1023.6
20200408101106 44 339 6.0 10.0 0.00 0.00 0.00 86 1023.7
20200408100606 44 341 7.0 10.0 0.00 0.00 0.00 86 1023.6
20200408100105 45 342 6.0 9.0 0.00 0.00 0.00 86 1023.7
20200408095605 45 347 6.0 10.0 0.00 0.00 0.00 87 1023.7
20200408095105 45 337 6.0 10.0 0.00 0.00 0.00 87 1023.6
20200408094605 45 334 6.0 9.0 0.00 0.00 0.00 87 1023.7
20200408094105 45 339 7.0 12.0 0.00 0.00 0.00 87 1023.7
20200408093606 45 336 7.0 10.0 0.00 0.00 0.00 87 1023.6
20200408093105 45 343 6.0 10.0 0.00 0.00 0.00 87 1023.7
20200408092605 45 336 6.0 9.0 0.00 0.00 0.00 87 1023.6
20200408092106 45 329 5.0 7.0 0.00 0.00 0.00 87 1023.6
20200408091105 44 325 6.0 9.0 0.00 0.00 0.00 86 1023.6
20200408090605 44 318 6.0 7.0 0.00 0.00 0.00 86 1023.4
20200408090105 45 319 4.0 6.0 0.00 0.00 0.00 86 1023.6
20200408085605 45 318 3.0 5.0 0.00 0.00 0.00 86 1023.6
20200408085105 45 329 3.0 6.0 0.00 0.00 0.00 86 1023.6
20200408084605 45 334 3.0 5.0 0.00 0.00 0.00 86 1023.5
20200408084105 45 317 5.0 5.0 0.00 0.00 0.00 86 1023.4
20200408083605 45 325 3.0 6.0 0.00 0.00 0.00 86 1023.5
20200408083105 45 319 5.0 5.0 0.00 0.00 0.00 86 1023.4
20200408082605 45 334 5.0 7.0 0.00 0.00 0.00 86 1023.4
20200408082105 45 341 5.0 8.0 0.00 0.00 0.00 86 1023.2
20200408081105 45 351 5.0 7.0 0.00 0.00 0.00 86 1023.2
20200408080605 45 349 5.0 14.0 0.00 0.00 0.00 86 1023.4
20200408080105 45 321 6.0 7.0 0.00 0.00 0.00 86 1023.3
20200408075605 45 325 6.0 7.0 0.00 0.00 0.00 86 1023.4
20200408075105 45 327 5.0 6.0 0.00 0.00 0.00 86 1023.3
20200408074605 45 324 6.0 7.0 0.00 0.00 0.00 86 1023.2
20200408074105 45 324 4.0 6.0 0.00 0.00 0.00 86 1023.2
20200408073606 45 330 6.0 7.0 0.00 0.00 0.00 85 1023.2
20200408073105 45 318 3.0 5.0 0.00 0.00 0.00 85 1023.2
20200408072605 45 321 2.0 5.0 0.00 0.00 0.00 84 1023.2
20200408072105 45 324 1.0 5.0 0.00 0.00 0.00 83 1023.1
20200408071606 45 317 2.0 3.0 0.00 0.00 0.00 82 1023.0
20200408071105 45 321 3.0 3.0 0.00 0.00 0.00 82 1023.0
20200408070605 45 316 2.0 3.0 0.00 0.00 0.00 81 1023.0
20200408070107 45 305 1.0 5.0 0.00 0.00 0.00 80 1023.0
20200408065604 45 326 3.0 5.0 0.00 0.00 0.00 79 1023.1
20200408065105 45 316 0.0 5.0 0.00 0.00 0.00 77 1023.1
20200408064605 45 308 0.0 0.0 0.00 0.00 0.00 76 1023.1
20200408064105 46 259 0.0 0.0 0.00 0.00 0.00 75 1022.9
20200408063605 46 253 0.0 0.0 0.00 0.00 0.00 76 1022.7
20200408063104 46 253 0.0 0.0 0.00 0.00 0.00 76 1022.7
20200408062605 46 247 0.0 0.0 0.00 0.00 0.00 77 1022.7
20200408062106 46 247 2.0 3.0 0.00 0.00 0.00 77 1022.7
20200408061606 45 246 0.0 0.0 0.00 0.00 0.00 77 1022.8
20200408061105 45 243 1.0 3.0 0.00 0.00 0.00 78 1022.7
20200408060605 45 254 2.0 3.0 0.00 0.00 0.00 78 1022.8
20200408060106 46 265 0.0 0.0 0.00 0.00 0.00 77 1022.8
20200408055605 46 265 0.0 0.0 0.00 0.00 0.00 77 1022.8
20200408055105 46 265 0.0 3.0 0.00 0.00 0.00 77 1022.8
20200408054604 46 262 2.0 5.0 0.00 0.00 0.00 77 1022.8
20200408054105 46 240 2.0 5.0 0.00 0.00 0.00 77 1022.7
20200408053605 46 243 3.0 6.0 0.00 0.00 0.00 77 1022.7
20200408053104 46 258 3.0 6.0 0.00 0.00 0.00 77 1022.7
20200408052605 46 238 3.0 5.0 0.00 0.00 0.00 76 1022.7
20200408052105 46 246 3.0 6.0 0.00 0.00 0.00 76 1022.7
20200408051608 46 237 4.0 6.0 0.00 0.00 0.00 76 1022.7
20200408051105 46 249 3.0 6.0 0.00 0.00 0.00 76 1022.6
20200408050605 46 231 3.0 7.0 0.00 0.00 0.00 75 1022.5
20200408050106 45 233 1.0 3.0 0.00 0.00 0.00 74 1022.5
20200408045605 45 223 2.0 5.0 0.00 0.00 0.00 74 1022.4
20200408045105 45 237 0.0 3.0 0.00 0.00 0.00 73 1022.4
20200408044605 45 238 2.0 3.0 0.00 0.00 0.00 73 1022.4
20200408044105 45 313 0.0 0.0 0.00 0.00 0.00 73 1022.4
20200408043605 46 313 0.0 0.0 0.00 0.00 0.00 73 1022.3
20200408043105 46 313 0.0 0.0 0.00 0.00 0.00 73 1022.2
20200408042605 46 313 0.0 0.0 0.00 0.00 0.00 73 1022.3
20200408042105 46 313 0.0 0.0 0.00 0.00 0.00 73 1022.3
20200408041604 46 313 0.0 0.0 0.00 0.00 0.00 73 1022.3
20200408041105 46 313 0.0 0.0 0.00 0.00 0.00 73 1022.3
20200408040606 46 313 0.0 0.0 0.00 0.00 0.00 73 1022.2
20200408040106 46 313 0.0 0.0 0.00 0.00 0.00 72 1022.2
20200408035605 47 313 0.0 0.0 0.00 0.00 0.00 72 1022.2
20200408035105 47 313 0.0 3.0 0.00 0.00 0.00 72 1022.2
20200408034606 47 312 1.0 3.0 0.00 0.00 0.00 71 1022.2
20200408034105 47 309 3.0 5.0 0.00 0.00 0.00 69 1022.2
20200408033605 47 235 0.0 0.0 0.00 0.00 0.00 68 1022.2
20200408033104 47 235 0.0 0.0 0.00 0.00 0.00 68 1022.2
20200408032606 48 235 0.0 0.0 0.00 0.00 0.00 68 1022.1
20200408032104 48 235 0.0 0.0 0.00 0.00 0.00 67 1022.0
20200408031605 48 235 0.0 0.0 0.00 0.00 0.00 67 1022.0
20200408031105 49 235 0.0 0.0 0.00 0.00 0.00 67 1022.1
20200408030605 49 235 0.0 0.0 0.00 0.00 0.00 66 1022.0
20200408030105 49 235 0.0 0.0 0.00 0.00 0.00 65 1021.9
20200408025605 50 235 0.0 0.0 0.00 0.00 0.00 65 1021.9
20200408025105 50 235 0.0 0.0 0.00 0.00 0.00 65 1021.8
20200408024605 50 235 0.0 0.0 0.00 0.00 0.00 64 1021.8
20200408024105 51 235 0.0 0.0 0.00 0.00 0.00 63 1021.7
20200408023604 51 235 0.0 0.0 0.00 0.00 0.00 62 1021.7
20200408023105 51 236 0.0 0.0 0.00 0.00 0.00 61 1021.7
20200408022605 51 235 0.0 0.0 0.00 0.00 0.00 61 1021.7
20200408022105 52 234 0.0 0.0 0.00 0.00 0.00 60 1021.6
20200408021605 52 234 0.0 1.0 0.00 0.00 0.00 60 1021.7
20200408021104 52 234 0.0 3.0 0.00 0.00 0.00 60 1021.7
20200408020605 53 234 2.0 3.0 0.00 0.00 0.00 59 1021.7
20200408020105 53 229 1.0 3.0 0.00 0.00 0.00 59 1021.6
20200408015605 53 212 1.0 5.0 0.00 0.00 0.00 58 1021.6
20200408015109 53 221 2.0 3.0 0.00 0.00 0.00 58 1021.6
20200408014605 53 223 2.0 3.0 0.00 0.00 0.00 58 1021.6
20200408014105 53 234 0.0 3.0 0.00 0.00 0.00 58 1021.6
20200408013605 54 243 0.0 5.0 0.00 0.00 0.00 58 1021.6
20200408013105 54 244 2.0 3.0 0.00 0.00 0.00 57 1021.6
20200408012605 54 248 1.0 3.0 0.00 0.00 0.00 58 1021.7
20200408012105 54 232 0.0 3.0 0.00 0.00 0.00 58 1021.8
20200408011605 54 232 0.0 3.0 0.00 0.00 0.00 58 1021.9
20200408011104 53 236 0.0 3.0 0.00 0.00 0.00 59 1021.8
20200408010607 53 237 2.0 5.0 0.00 0.00 0.00 59 1021.8
20200408010105 54 210 3.0 7.0 0.00 0.00 0.00 59 1021.7
20200408005605 54 215 2.0 3.0 0.00 0.00 0.00 58 1021.7
20200408005104 53 233 2.0 5.0 0.00 0.00 0.00 59 1021.7
20200408004605 53 215 3.0 5.0 0.00 0.00 0.00 60 1021.7
20200408004104 53 200 5.0 9.0 0.00 0.00 0.00 59 1021.7
20200408003605 54 206 5.0 7.0 0.00 0.00 0.00 58 1021.7
20200408003105 54 208 5.0 7.0 0.00 0.00 0.00 58 1021.7
20200408002605 54 195 4.0 7.0 0.00 0.00 0.00 58 1021.7
20200408002106 54 203 4.0 9.0 0.00 0.00 0.00 58 1021.7
20200408001605 54 202 5.0 9.0 0.00 0.00 0.00 58 1021.7
20200408000605 54 202 5.0 7.0 0.00 0.00 0.00 60 1021.8
20200408000105 54 204 2.0 6.0 0.00 0.00 0.00 60 1021.8
20200407235605 54 198 5.0 9.0 0.00 0.00 0.00 61 1021.7
20200407235105 54 183 5.0 9.0 0.00 0.00 0.00 61 1021.6
20200407234604 53 178 4.0 5.0 0.00 0.00 0.00 65 1021.6
20200407234105 53 153 3.0 8.0 0.00 0.00 0.00 66 1021.7
20200407233604 52 138 6.0 7.0 0.00 0.00 0.00 67 1021.6
20200407233105 52 139 5.0 7.0 0.00 0.00 0.00 69 1021.7
20200407232605 52 143 6.0 10.0 0.00 0.00 0.00 70 1021.7
20200407232105 52 135 10.0 12.0 0.00 0.00 0.00 70 1021.7
20200407231604 52 130 9.0 12.0 0.00 0.00 0.00 69 1021.7
20200407231105 52 126 10.0 12.0 0.00 0.00 0.00 69 1021.7
20200407230605 52 133 9.0 12.0 0.00 0.00 0.00 71 1021.7
20200407230105 52 130 8.0 12.0 0.00 0.00 0.00 70 1021.7
20200407225605 53 131 11.0 13.0 0.00 0.00 0.00 69 1021.6
20200407225105 53 131 10.0 12.0 0.00 0.00 0.00 69 1021.6
20200407224604 53 134 10.0 14.0 0.00 0.00 0.00 68 1021.6
20200407224105 53 139 9.0 12.0 0.00 0.00 0.00 67 1021.6
20200407223605 53 130 9.0 12.0 0.00 0.00 0.00 68 1021.6
20200407223104 53 133 10.0 12.0 0.00 0.00 0.00 69 1021.6
20200407222605 53 137 8.0 12.0 0.00 0.00 0.00 71 1021.6
20200407222105 53 127 10.0 12.0 0.00 0.00 0.00 70 1021.6